Terminal Aerodrome Forecast
Issued by NWS Goodland, KS

Home | Current Version | Previous Version | Text Only | Print | Product List | Glossary On
Versions: 1 2 3 4 5 6 7 8 9 10 11 12 13 14 15 16 17
000
FTUS43 KGLD 030536
TAFGLD
TAF
KGLD 030536Z 0306/0406 17010KT P6SM VCSH SCT100
     FM031000 19008KT 2SM BR BKN008
     FM031400 23012KT P6SM FEW015
     FM040300 19018G26KT P6SM SKC=

USA.gov is the U.S. government's official web portal to all federal, state and local government web resources and services.